Weather in Bolshoy Sundyr

Russia / Chuvash Republic     56°06′40″N   46°44′43″E
temp.,
°C
wind,
m/s
gust,
m/s
humid.,
%
clouds,
%
prec.,
mm/h
press.,
hPa
HPBL,
m
22 january, fri
fri2200:00−13wsw479689 0.3 1015199
03:00−15wsw349890 0.3 101563
06:00−16wnw2397100 0.0 101628
09:00−16wnw1297100 0.1 101720
12:00−15nne1195100 0.0 101967
15:00−15e1295100 0.0 101921
18:00−16ese3495100 0.0 102091
21:00−16ese5895100 0.0 1021210
23 january, sat
sat2300:00−16se6995100 0.1 1021260
03:00−14se61195100 0.4 1020278
06:00−13se71195100 0.7 1018283
09:00−11se6995100 1.6 1017244
12:00−7se5895100 0.8 1016215
15:00−1sse5899100 2.1 1015242
18:00+1sw510100100 0.6 1014275
21:00+1sw61099100 1.0 1014274
24 january, sun
sun2400:00+1wsw51099100 0.5 1015259
03:00+1sw61199100 0.9 1016347
06:00+1sw51194100 0.1 1016328
09:00+1sw5898100 0.1 1018276
12:00+1ssw37100100 0.1 1018170
15:00+1ssw4999100 0.3 1019264
18:00+1ssw4899100 0.1 1020269
21:00+1ssw4899100 0.2 1020257
25 january, mon
mon2500:00+1ssw51098100 0.1 1020308
03:00+1ssw51097100 0.5 1021303
06:00+1ssw61096100 0.3 1021352
09:000ssw61193100 0.3 1022367
12:00−1s51090100 0.0 1023340
15:00−1s51091100 0.0 1023361
18:00−3sse51191100 0.0 1023320
21:00−4sse61195100 0.0 1023413
26 january, tue
tue2600:00−3s51094100 0.0 1022507
03:00−3s4995100 0.1 1022434
06:00−2s51095100 0.1 1022454
09:00−2s5995100 0.1 1022419
12:00−3sse589597 0.0 1022393
15:00−2sse589299 0.1 1021499
18:00−2sse51193100 0.0 1021421
21:00−4sse61393100 0.0 1020377